NOAA 17 DEB

Satellite information

Favourite Embed

Satellite Type and Status

DEBRISIN ORBIT

Key statistics

Satellite NOAA 17 DEB at a glance.

Uptime

8574

Days in orbit

Revolutions

≈ 14.5

Per day

Orbit

SSO

Sun Synchronous Orbit

Inclination

98.6

Latest

Satellite identification and parameters

Extended collection of information and parameters for NOAA 17 DEB.

Object identification

Identified? True

Debris? True

Object name: NOAA 17 DEB

International designator: 2002-032DB

Object number (NORAD): 48766

Object ID (CCSDS): 48766

Country: UNITED STATES OF AMERICA (US)

Current information (Y/N): Y

RCS size: SMALL

Orbital parameters

Period: 98.988 minutes

Inclination: 98.5963 deg

SMA: 7088.421 km

Apoapsis: 716.654 km

Periapsis: 703.918 km

RAAN: 298.1396 deg

Eccentricy: 0.00089833

Argument of periapsis: 89.5045 deg

Mean anomaly: 270.7181 deg

Mean motion: 14.54716943 rev/day

Mean motion (dot): 0.00016765 rev/day2

B* drag term: 0.0039168209 1/REarth

Two-line elements (TLE)

Creation date: Dec. 13, 2025, 4:32 a.m.

Reference frame: TEME

Reference center: EARTH

Epoch: Dec. 12, 2025, 2:24 p.m. UTC

TLE line 0: 0 NOAA 17 DEB

TLE line 1: 1 48766U 02032DB 25346.60018816 .00016765 00000-0 39168-2 0 9992

TLE line 2: 2 48766 98.5963 298.1396 0008983 89.5045 270.7181 14.54716943244077

Live tracking on map

Real-time ground track for satellite NOAA 17 DEB.

In-orbit conjunctions

A list of the most updated potential collisions computed for object NOAA 17 DEB.

Target Orbit TCA Probability of collision Miss distance Type
STEX LEO 2025-12-12 09:01:03 0.0001831875 312.0 (m) PAYLOAD
NOAA 16 DEB SSO 2024-11-14 10:33:59 0.0002736895 960.0 (m) DEBRIS

Associated space launch

NOAA M carried weather imagers and microwave and infrared sounders, as well as a SARSAT search-and-rescue package. It had an on-orbit mass of 1475 kg.

NOAA 17 DEB was lifted into orbit during the mission ‘Titan II SLV | NOAA 17’, on board a Titan II SLV space rocket.

The launch took place on June 24, 2002, 6:23 p.m. from Space Launch Complex 4W.

For more information about the launch, click the button.

Launch to space Titan II SLV | NOAA 17
Titan II SLV | NOAA 17

Agency: N/A

Status: Launch Successful

Launch date: June 24, 2002, 6:23 p.m. UTC

Rocket: Titan II SLV

Launch pad: Space Launch Complex 4W

Location: Vandenberg SFB, CA, USA

...

Latest news about this satellite

There are no fresh news available about this satellite. Check back as we update our databases every day.


Newsletter sign-up

Weekly statistics, charts and insights to help you stay on top of the space industry.